Athens, OH

9:09 AM EDT on April 28, 2017 (GMT -0400)
Ohio University

Weather History for KUNI - December, 2013

Change the Weather History Date:

Tuesday, December 31, 2013

  Actual Average (KPKB) Record (KPKB)
Temperature  
Mean Temperature 28 °F -  
Max Temperature 31 °F 42 °F 75 °F (1951)
Min Temperature 25 °F 27 °F -2 °F (1935)
Degree Days  
Heating Degree Days 37    
Moisture  
Dew Point 18 °F    
Average Humidity 66    
Maximum Humidity 78    
Minimum Humidity 52    
Precipitation  
Precipitation 0.00 in - - ()
Sea Level Pressure  
Sea Level Pressure 30.26 in    
Wind  
Wind Speed 8 mph (SW)    
Max Wind Speed 20 mph    
Max Gust Speed 26 mph    
Visibility 10 miles    
Events Snow    
Averages and records for this station are not official NWS values.
T = Trace of Precipitation, MM = Missing Value Source: NWS Daily Summary

Daily Weather History Graph

Daily Weather History Graph

Search for Another Location

Airport or City:

Trip Planner

Search our weather history database for the weather conditions in past years. The results will help you decide how hot, cold, wet, or windy it might be!

Date:

Astronomy

Dec. 31, 2013 Rise Set
Actual Time 7:48 AM EST 5:16 PM EST
Civil Twilight 7:18 AM EST 5:46 PM EST
Nautical Twilight 6:44 AM EST 6:19 PM EST
Astronomical Twilight 6:12 AM EST 6:52 PM EST
Moon 6:40 AM EST (12/31) 4:50 PM EST (12/31)
Length of Visible Light 10h 27m
Length of Day
9h 27m
Waning Crescent, 1% of the Moon is Illuminated
Dec 31
Waning Crescent
Jan 1
New
Jan 7
First Quarter
Jan 15
Full
Jan 24
Last Quarter

Hourly Weather History & Observations

Time (EST) Temp. Windchill Dew Point Humidity Pressure Visibility Wind Dir Wind Speed Gust Speed Precip Events Conditions
12:15 AM 27.5 °F 21.1 °F 19.0 °F 71% 30.16 in 10.0 mi WSW 5.8 mph - N/A   Overcast
12:35 AM 27.0 °F 19.5 °F 19.2 °F 73% 30.17 in 10.0 mi West 6.9 mph - N/A   Mostly Cloudy
12:55 AM 27.1 °F 20.7 °F 19.8 °F 74% 30.17 in 10.0 mi WSW 5.8 mph - N/A   Overcast
1:15 AM 27.3 °F 19.9 °F 19.8 °F 73% 30.17 in 10.0 mi WSW 6.9 mph - N/A   Overcast
1:35 AM 27.0 °F 19.5 °F 19.4 °F 73% 30.15 in 10.0 mi WSW 6.9 mph - N/A   Mostly Cloudy
1:55 AM 26.8 °F 19.3 °F 19.6 °F 74% 30.15 in 10.0 mi WSW 6.9 mph - N/A   Mostly Cloudy
2:15 AM 26.6 °F 21.2 °F 19.4 °F 74% 30.15 in 10.0 mi SSW 4.6 mph - N/A   Scattered Clouds
2:35 AM 26.2 °F 17.8 °F 18.5 °F 73% 30.16 in 10.0 mi SW 8.1 mph - N/A   Clear
2:55 AM 26.6 °F 18.2 °F 18.9 °F 73% 30.17 in 10.0 mi WSW 8.1 mph - N/A   Scattered Clouds
3:15 AM 26.6 °F 18.2 °F 19.0 °F 73% 30.17 in 10.0 mi WSW 8.1 mph - N/A   Overcast
3:35 AM 26.6 °F 18.2 °F 18.9 °F 73% 30.17 in 10.0 mi WSW 8.1 mph - N/A   Mostly Cloudy
3:55 AM 26.6 °F 19.1 °F 18.9 °F 73% 30.17 in 10.0 mi WSW 6.9 mph - N/A   Overcast
4:15 AM 26.4 °F 18.9 °F 18.5 °F 72% 30.16 in 10.0 mi SW 6.9 mph - N/A   Overcast
4:35 AM 26.4 °F 18.9 °F 17.6 °F 69% 30.15 in 10.0 mi SSW 6.9 mph - N/A   Overcast
4:55 AM 26.4 °F 20.9 °F 17.6 °F 69% 30.15 in 10.0 mi SSW 4.6 mph - N/A   Overcast
5:15 AM 26.2 °F 20.7 °F 18.3 °F 72% 30.14 in 10.0 mi SSW 4.6 mph - N/A   Overcast
5:35 AM 26.4 °F 20.9 °F 18.3 °F 71% 30.14 in 10.0 mi SW 4.6 mph - N/A   Overcast
5:55 AM 26.4 °F 19.8 °F 18.5 °F 72% 30.14 in 10.0 mi SW 5.8 mph - N/A   Overcast
6:15 AM 26.6 °F 19.1 °F 18.5 °F 71% 30.15 in 10.0 mi SW 6.9 mph - N/A   Overcast
6:35 AM 26.6 °F 16.2 °F 18.5 °F 71% 30.15 in 10.0 mi SW 11.5 mph - N/A   Overcast
6:55 AM 26.6 °F 16.8 °F 18.5 °F 71% 30.16 in 10.0 mi WSW 10.4 mph - N/A   Overcast
7:15 AM 26.6 °F 17.5 °F 18.1 °F 70% 30.16 in 10.0 mi WSW 9.2 mph 16.1 mph N/A   Overcast
7:35 AM 26.6 °F 15.7 °F 17.1 °F 67% 30.17 in 10.0 mi WSW 12.7 mph 18.4 mph N/A   Overcast
7:55 AM 26.6 °F 16.2 °F 16.3 °F 65% 30.17 in 10.0 mi WSW 11.5 mph - N/A   Overcast
8:15 AM 26.6 °F 15.7 °F 15.4 °F 63% 30.19 in 10.0 mi WSW 12.7 mph 19.6 mph N/A   Overcast
8:35 AM 26.6 °F 16.2 °F 15.6 °F 63% 30.21 in 10.0 mi WSW 11.5 mph - N/A   Overcast
8:55 AM 26.6 °F 15.7 °F 15.6 °F 63% 30.22 in 10.0 mi WSW 12.7 mph 20.7 mph N/A   Overcast
9:15 AM 26.6 °F 16.2 °F 15.4 °F 63% 30.23 in 10.0 mi West 11.5 mph - N/A   Overcast
9:35 AM 26.6 °F 13.1 °F 15.4 °F 63% 30.24 in 10.0 mi WSW 19.6 mph - N/A   Overcast
9:55 AM 26.8 °F 16.5 °F 15.6 °F 63% 30.27 in 10.0 mi West 11.5 mph 26.5 mph N/A   Overcast
10:15 AM 27.0 °F 14.7 °F 16.3 °F 64% 30.29 in 10.0 mi West 16.1 mph 20.7 mph N/A   Overcast
10:35 AM 27.0 °F 15.6 °F 16.7 °F 65% 30.30 in 10.0 mi West 13.8 mph 18.4 mph N/A Snow Light Snow
10:55 AM 27.0 °F 15.6 °F 17.4 °F 67% 30.32 in 10.0 mi WSW 13.8 mph 21.9 mph N/A Snow Light Snow
11:15 AM 26.8 °F 15.4 °F 17.6 °F 68% 30.33 in 10.0 mi WSW 13.8 mph 20.7 mph N/A Snow Light Snow
11:35 AM 27.3 °F 16.6 °F 18.3 °F 69% 30.34 in 10.0 mi WSW 12.7 mph 17.3 mph N/A Snow Light Snow
11:55 AM 27.3 °F 14.8 °F 18.0 °F 68% 30.34 in 7.0 mi WSW 17.3 mph 23.0 mph N/A Snow Light Snow
12:15 PM 28.2 °F 18.9 °F 17.8 °F 65% 30.33 in 10.0 mi West 10.4 mph 16.1 mph N/A   Overcast
12:35 PM 28.9 °F 19.2 °F 16.7 °F 60% 30.32 in 10.0 mi West 11.5 mph 20.7 mph N/A   Overcast
12:55 PM 29.8 °F 18.9 °F 16.7 °F 58% 30.31 in 10.0 mi WSW 15.0 mph - N/A   Mostly Cloudy
1:15 PM 30.9 °F 21.7 °F 16.7 °F 56% 30.32 in 10.0 mi West 11.5 mph 19.6 mph N/A   Mostly Cloudy
1:35 PM 30.6 °F 19.8 °F 15.6 °F 54% 30.33 in 10.0 mi WSW 15.0 mph 18.4 mph N/A   Mostly Cloudy
1:55 PM 29.7 °F 20.7 °F 16.2 °F 57% 30.32 in 10.0 mi West 10.4 mph - N/A   Mostly Cloudy
2:15 PM 30.7 °F 20.9 °F 16.2 °F 55% 30.32 in 10.0 mi West 12.7 mph - N/A   Scattered Clouds
2:35 PM 31.5 °F 21.4 °F 17.2 °F 56% 30.32 in 10.0 mi WSW 13.8 mph - N/A   Mostly Cloudy
2:55 PM 30.7 °F 20.9 °F 16.2 °F 55% 30.33 in 10.0 mi WSW 12.7 mph - N/A   Scattered Clouds
3:15 PM 31.5 °F 24.2 °F 16.3 °F 54% 30.33 in 10.0 mi WSW 8.1 mph - N/A   Clear
3:35 PM 31.8 °F 23.9 °F 16.0 °F 52% 30.32 in 10.0 mi WSW 9.2 mph - N/A   Scattered Clouds
3:55 PM 31.3 °F 23.3 °F 16.0 °F 53% 30.32 in 10.0 mi SW 9.2 mph - N/A   Clear
4:15 PM 31.1 °F 24.5 °F 16.9 °F 56% 30.32 in 10.0 mi WSW 6.9 mph - N/A   Clear
4:35 PM 31.6 °F 26.0 °F 16.2 °F 53% 30.32 in 10.0 mi WSW 5.8 mph - N/A   Clear
4:55 PM 30.9 °F 26.2 °F 15.6 °F 53% 30.31 in 10.0 mi SW 4.6 mph - N/A   Clear
5:15 PM 30.4 °F 25.6 °F 16.3 °F 56% 30.31 in 10.0 mi SW 4.6 mph - N/A   Clear
5:35 PM 30.2 °F 25.4 °F 16.7 °F 57% 30.32 in 10.0 mi SW 4.6 mph - N/A   Scattered Clouds
5:55 PM 30.4 °F 26.9 °F 16.7 °F 57% 30.32 in 10.0 mi SW 3.5 mph - N/A   Scattered Clouds
6:15 PM 30.2 °F 26.7 °F 16.5 °F 57% 30.32 in 10.0 mi SSW 3.5 mph - N/A   Clear
6:35 PM 30.0 °F 26.5 °F 17.6 °F 60% 30.31 in 10.0 mi South 3.5 mph - N/A   Clear
6:55 PM 29.3 °F 25.6 °F 17.4 °F 61% 30.31 in 10.0 mi South 3.5 mph - N/A   Clear
7:15 PM 29.1 °F 25.4 °F 17.4 °F 62% 30.31 in 10.0 mi South 3.5 mph - N/A   Clear
7:35 PM 29.1 °F 25.4 °F 17.4 °F 62% 30.32 in 10.0 mi SW 3.5 mph - N/A   Clear
7:55 PM 28.2 °F - 17.6 °F 64% 30.33 in 10.0 mi Calm Calm - N/A   Clear
8:15 PM 27.3 °F - 18.0 °F 68% 30.33 in 10.0 mi Calm Calm - N/A   Clear
8:35 PM 26.8 °F 22.8 °F 18.0 °F 69% 30.33 in 10.0 mi SSW 3.5 mph - N/A   Clear
8:55 PM 26.8 °F 21.4 °F 18.1 °F 70% 30.32 in 10.0 mi South 4.6 mph - N/A   Clear
9:15 PM 25.9 °F 20.3 °F 18.1 °F 73% 30.31 in 10.0 mi South 4.6 mph - N/A   Clear
9:35 PM 25.7 °F - 18.1 °F 73% 30.31 in 10.0 mi Calm Calm - N/A   Clear
9:55 PM 26.4 °F 22.4 °F 18.5 °F 72% 30.30 in 10.0 mi South 3.5 mph - N/A   Clear
10:15 PM 27.0 °F - 18.5 °F 70% 30.30 in 10.0 mi Calm Calm - N/A   Clear
10:35 PM 25.3 °F 21.1 °F 19.4 °F 78% 30.31 in 10.0 mi West 3.5 mph - N/A   Clear
10:55 PM 25.7 °F - 19.6 °F 78% 30.31 in 10.0 mi Calm Calm - N/A   Clear
11:15 PM 25.7 °F 21.5 °F 19.4 °F 77% 30.30 in 10.0 mi South 3.5 mph - N/A   Clear
11:35 PM 25.5 °F 21.3 °F 19.0 °F 76% 30.29 in 10.0 mi South 3.5 mph - N/A   Clear
11:55 PM 25.2 °F - 18.0 °F 74% 30.29 in 10.0 mi Calm Calm - N/A   Clear